Weather History for Buffalo, WY

Change the Weather History Date:

Saturday, July 27, 2013

  Actual Average Record
Temperature  
Mean Temperature 69 °F 72 °F  
Max Temperature 80 °F 86 °F 97 °F (2006)
Min Temperature 58 °F 58 °F 51 °F (2004)
Degree Days  
Heating Degree Days 0 1  
Month to date heating degree days 0 30  
Since 1 June heating degree days 100 193  
Since 1 July heating degree days 0 30  
Cooling Degree Days 4 8  
Month to date cooling degree days 245 174  
Year to date cooling degree days 332 232  
Since 1 June cooling degree days 322 225  
Growing Degree Days 18 (Base 50)    
Moisture  
Dew Point 47 °F    
Average Humidity 53    
Maximum Humidity 75    
Minimum Humidity 31    
Precipitation  
Precipitation T in 0.06 in 1.20 in (2009)
Month to date precipitation T 1.44  
Year to date precipitation 4.08 9.24  
Sea Level Pressure  
Sea Level Pressure 29.93 in    
Wind  
Wind Speed 8 mph (South)    
Max Wind Speed 21 mph    
Max Gust Speed 25 mph    
Visibility 10 miles    
Events Thunderstorm    
T = Trace of Precipitation, MM = Missing Value Source: NWS Daily Summary

Daily Weather History Graph

Daily Weather History Graph

Search for Another Location

Airport:

Trip Planner

Search our weather history database for the weather conditions in past years. The results will help you decide how hot, cold, wet, or windy it might be!

Date:

Astronomy

Jul. 27, 2013 Rise Set
Actual Time 5:48 AM MDT 8:37 PM MDT
Civil Twilight 5:15 AM MDT 9:10 PM MDT
Nautical Twilight 4:32 AM MDT 9:53 PM MDT
Astronomical Twilight 3:42 AM MDT 10:43 PM MDT
Moon 11:09 PM MDT (7/27) 11:48 AM MDT (7/27)
Length of Visible Light 15h 55m
Length of Day
14h 48m
Waning Gibbous, 70% of the Moon is Illuminated
Jul 27
Waning Gibbous
Jul 29
Last Quarter
Aug 6
New
Aug 14
First Quarter
Aug 20
Full

Hourly Weather History & Observations

Time (MDT) Temp. Dew Point Humidity Pressure Visibility Wind Dir Wind Speed Gust Speed Precip Events Conditions
12:53 AM 63.0 °F 52.0 °F 67% 30.02 in 10.0 mi SE 5.8 mph - N/A   Scattered Clouds
1:53 AM 64.0 °F 50.0 °F 60% 29.99 in 10.0 mi SSE 12.7 mph - N/A   Mostly Cloudy
2:53 AM 62.1 °F 50.0 °F 65% 29.98 in 10.0 mi SE 9.2 mph - N/A   Mostly Cloudy
3:53 AM 61.0 °F 50.0 °F 67% 29.96 in 10.0 mi SSE 10.4 mph - 0.00 in   Overcast
4:53 AM 62.1 °F 50.0 °F 65% 29.94 in 10.0 mi SSE 10.4 mph - N/A   Scattered Clouds
5:53 AM 60.1 °F 50.0 °F 69% 29.97 in 10.0 mi NE 11.5 mph - 0.00 in   Overcast
6:53 AM 59.0 °F 51.1 °F 75% 29.99 in 10.0 mi SSE 4.6 mph - N/A   Mostly Cloudy
7:53 AM 61.0 °F 48.9 °F 64% 30.01 in 10.0 mi East 5.8 mph - N/A   Mostly Cloudy
8:53 AM 64.0 °F 50.0 °F 60% 30.00 in 10.0 mi South 6.9 mph - N/A   Clear
9:53 AM 69.1 °F 50.0 °F 51% 29.97 in 10.0 mi SE 11.5 mph - N/A   Clear
10:53 AM 73.9 °F 50.0 °F 43% 29.94 in 10.0 mi SSE 13.8 mph - N/A   Clear
11:53 AM 78.1 °F 48.9 °F 36% 29.92 in 10.0 mi SSE 13.8 mph - N/A   Partly Cloudy
12:53 PM 75.9 °F 48.0 °F 37% 29.90 in 10.0 mi SSE 9.2 mph - 0.00 in Thunderstorm Thunderstorm
1:53 PM 73.9 °F 48.9 °F 41% 29.90 in 10.0 mi SSE 11.5 mph - 0.00 in Thunderstorm Unknown
2:00 PM 77.0 °F 51.8 °F 41% 30.06 in 10.0 mi South 10.4 mph - N/A   Clear
2:53 PM 72.0 °F 48.0 °F 43% 29.90 in 10.0 mi Calm Calm - N/A   Scattered Clouds
3:53 PM 72.0 °F 48.9 °F 44% 29.89 in 10.0 mi WSW 10.4 mph - N/A   Scattered Clouds
4:33 PM 73.4 °F 46.4 °F 38% 30.04 in 10.0 mi WSW 11.5 mph - N/A Thunderstorm Thunderstorm
4:53 PM 73.9 °F 45.0 °F 35% 29.87 in 10.0 mi WSW 9.2 mph - N/A   Partly Cloudy
5:53 PM 73.9 °F 44.1 °F 34% 29.86 in 10.0 mi WSW 11.5 mph - N/A   Clear
6:13 PM 75.2 °F 42.8 °F 31% 30.00 in 10.0 mi SW 9.2 mph - N/A   Clear
6:53 PM 75.0 °F 43.0 °F 32% 29.84 in 10.0 mi South 9.2 mph - N/A   Clear
7:53 PM 73.0 °F 43.0 °F 34% 29.84 in 10.0 mi WSW 15.0 mph 21.9 mph N/A   Clear
8:53 PM 72.0 °F 44.1 °F 37% 29.83 in 10.0 mi SSW 5.8 mph - N/A   Clear
9:53 PM 70.0 °F 42.1 °F 36% 29.81 in 10.0 mi West 5.8 mph - N/A   Clear
10:53 PM 68.0 °F 39.9 °F 36% 29.81 in 10.0 mi Calm Calm - N/A   Clear
11:53 PM 66.9 °F 43.0 °F 42% 29.81 in 10.0 mi Calm Calm - N/A   Clear